EJA906 KCMH-KTEB

Flight info

Callsign EJA906
Flight time 1h 6m
Altitude 45000
Route RDBUV NOWZU DJB JHW LVZ5
Aircraft C750/M-SBDFGHRWXY/S

Departure

Time 2026-05-09 01:58
Airport John Glenn Columbus International Airport (KCMH)

Arrival

Time 2026-05-09 03:04
Airport Teterboro Airport (KTEB)
Time Latitude Longitude Altitude Speed Heading
2026-05-09 01:44 40.00631 -82.89915 813 ft 0 kts 94°
2026-05-09 01:50 40.00631 -82.89912 813 ft 1 kts 98°
2026-05-09 01:50 40.00610 -82.89882 813 ft 6 kts 150°
2026-05-09 01:50 40.00565 -82.89867 813 ft 6 kts 169°
2026-05-09 01:51 40.00525 -82.89835 813 ft 8 kts 140°
2026-05-09 01:51 40.00476 -82.89779 813 ft 9 kts 139°
2026-05-09 01:51 40.00423 -82.89741 813 ft 8 kts 167°
2026-05-09 01:51 40.00374 -82.89720 813 ft 6 kts 142°
2026-05-09 01:52 40.00348 -82.89709 813 ft 0 kts 182°
2026-05-09 01:53 40.00341 -82.89709 813 ft 5 kts 182°
2026-05-09 01:53 40.00253 -82.89713 813 ft 12 kts 180°
2026-05-09 01:53 40.00206 -82.89741 813 ft 4 kts 202°
2026-05-09 01:54 40.00166 -82.89718 813 ft 8 kts 97°
2026-05-09 01:54 40.00161 -82.89623 813 ft 12 kts 94°
2026-05-09 01:54 40.00153 -82.89491 813 ft 15 kts 94°
2026-05-09 01:54 40.00145 -82.89352 813 ft 15 kts 94°
2026-05-09 01:55 40.00137 -82.89208 813 ft 16 kts 94°
2026-05-09 01:55 40.00128 -82.89052 811 ft 18 kts 94°
2026-05-09 01:55 40.00119 -82.88884 810 ft 17 kts 94°
2026-05-09 01:55 40.00110 -82.88744 810 ft 13 kts 93°
2026-05-09 01:56 40.00104 -82.88628 810 ft 13 kts 94°
2026-05-09 01:56 40.00097 -82.88503 808 ft 13 kts 94°
2026-05-09 01:56 40.00090 -82.88387 806 ft 11 kts 94°
2026-05-09 01:56 40.00084 -82.88277 804 ft 13 kts 94°
2026-05-09 01:57 40.00076 -82.88143 801 ft 16 kts 94°
2026-05-09 01:57 40.00069 -82.88014 799 ft 10 kts 93°
2026-05-09 01:57 40.00088 -82.87941 797 ft 7 kts 26°
2026-05-09 01:57 40.00144 -82.87942 796 ft 8 kts 325°
2026-05-09 01:58 40.00165 -82.88010 797 ft 9 kts 276°
2026-05-09 01:58 40.00186 -82.88364 804 ft 92 kts 274°
2026-05-09 01:58 40.00249 -82.89574 1057 ft 163 kts 275°
2026-05-09 01:58 40.00325 -82.91114 1960 ft 178 kts 274°
2026-05-09 01:59 40.00414 -82.92744 2819 ft 184 kts 272°
2026-05-09 01:59 40.00505 -82.94386 3694 ft 187 kts 270°
2026-05-09 01:59 40.00689 -82.96051 4559 ft 195 kts 283°
2026-05-09 01:59 40.01517 -82.97482 5410 ft 215 kts 322°
2026-05-09 02:00 40.02995 -82.97889 6361 ft 233 kts
2026-05-09 02:00 40.04495 -82.97034 7178 ft 248 kts 30°
2026-05-09 02:00 40.05970 -82.95878 8009 ft 250 kts 22°
2026-05-09 02:00 40.07516 -82.94830 8837 ft 257 kts 22°
2026-05-09 02:01 40.09109 -82.93729 9600 ft 266 kts 22°
2026-05-09 02:01 40.10774 -82.92571 10367 ft 274 kts 22°
2026-05-09 02:01 40.12476 -82.91389 11090 ft 283 kts 21°
2026-05-09 02:01 40.14229 -82.90170 11788 ft 292 kts 22°
2026-05-09 02:02 40.16069 -82.88891 12483 ft 310 kts 22°
2026-05-09 02:02 40.18018 -82.87536 13191 ft 327 kts 22°
2026-05-09 02:02 40.20058 -82.86111 13891 ft 342 kts 22°
2026-05-09 02:02 40.22177 -82.84627 14645 ft 354 kts 22°
2026-05-09 02:03 40.24386 -82.83083 15360 ft 366 kts 22°
2026-05-09 02:03 40.26671 -82.81495 16086 ft 377 kts 22°
2026-05-09 02:03 40.29006 -82.79855 16802 ft 387 kts 22°
2026-05-09 02:03 40.31391 -82.78188 17513 ft 395 kts 22°
2026-05-09 02:04 40.33820 -82.76484 18228 ft 402 kts 21°
2026-05-09 02:04 40.36297 -82.74751 18962 ft 408 kts 21°
2026-05-09 02:04 40.38839 -82.72966 19641 ft 415 kts 21°
2026-05-09 02:04 40.41436 -82.71298 20259 ft 417 kts 15°
2026-05-09 02:05 40.44117 -82.69921 20875 ft 424 kts 15°
2026-05-09 02:05 40.46865 -82.68458 21494 ft 429 kts 14°
2026-05-09 02:05 40.49660 -82.66970 22117 ft 434 kts 15°
2026-05-09 02:05 40.52467 -82.65478 22728 ft 438 kts 14°
2026-05-09 02:06 40.55272 -82.63980 23293 ft 444 kts 15°
2026-05-09 02:06 40.58124 -82.62316 23849 ft 450 kts 17°
2026-05-09 02:06 40.60970 -82.60654 24412 ft 454 kts 16°
2026-05-09 02:07 40.66797 -82.57222 25567 ft 462 kts 15°
2026-05-09 02:07 40.69722 -82.55506 26123 ft 465 kts 15°
2026-05-09 02:07 40.72702 -82.53751 26669 ft 468 kts 15°
2026-05-09 02:07 40.75664 -82.52005 27210 ft 470 kts 15°
2026-05-09 02:08 40.78669 -82.50234 27751 ft 472 kts 15°
2026-05-09 02:08 40.81637 -82.48479 28268 ft 477 kts 15°
2026-05-09 02:08 40.84681 -82.46683 28822 ft 482 kts 14°
2026-05-09 02:08 40.87740 -82.44874 29415 ft 486 kts 14°
2026-05-09 02:09 40.90840 -82.43040 30029 ft 489 kts 14°
2026-05-09 02:09 40.93922 -82.41210 30653 ft 491 kts 14°
2026-05-09 02:09 40.97046 -82.39355 31221 ft 492 kts 14°
2026-05-09 02:09 41.00154 -82.37508 31867 ft 491 kts 13°
2026-05-09 02:10 41.03261 -82.35661 32494 ft 491 kts 13°
2026-05-09 02:10 41.06368 -82.33810 33117 ft 489 kts 13°
2026-05-09 02:10 41.09472 -82.31960 33721 ft 488 kts 13°
2026-05-09 02:10 41.12547 -82.30129 34303 ft 487 kts 13°
2026-05-09 02:11 41.15654 -82.28274 34802 ft 487 kts 13°
2026-05-09 02:11 41.18761 -82.26427 35250 ft 488 kts 13°
2026-05-09 02:11 41.21866 -82.24569 35652 ft 490 kts 13°
2026-05-09 02:11 41.24991 -82.22699 36029 ft 491 kts 13°
2026-05-09 02:12 41.28107 -82.20831 36409 ft 492 kts 13°
2026-05-09 02:12 41.31227 -82.18961 36819 ft 492 kts 13°
2026-05-09 02:12 41.34235 -82.16647 37176 ft 514 kts 30°
2026-05-09 02:12 41.36680 -82.13077 37608 ft 532 kts 50°
2026-05-09 02:13 41.38297 -82.08585 38032 ft 543 kts 69°
2026-05-09 02:13 41.39462 -82.03848 38444 ft 541 kts 67°
2026-05-09 02:13 41.40757 -81.99139 38820 ft 540 kts 66°
2026-05-09 02:13 41.42083 -81.94483 39244 ft 539 kts 65°
2026-05-09 02:14 41.43403 -81.89871 39670 ft 538 kts 65°
2026-05-09 02:14 41.44739 -81.85226 40096 ft 537 kts 65°
2026-05-09 02:14 41.46067 -81.80572 40492 ft 536 kts 65°
2026-05-09 02:14 41.47384 -81.75978 40882 ft 534 kts 65°
2026-05-09 02:15 41.48687 -81.71399 41273 ft 533 kts 65°
2026-05-09 02:15 41.50003 -81.66792 41664 ft 531 kts 65°
2026-05-09 02:15 41.51304 -81.62189 42021 ft 529 kts 65°
2026-05-09 02:15 41.52587 -81.57694 42367 ft 527 kts 65°
2026-05-09 02:16 41.53892 -81.53080 42693 ft 526 kts 65°
2026-05-09 02:16 41.55170 -81.48542 42972 ft 525 kts 65°
2026-05-09 02:16 41.56444 -81.44031 43252 ft 525 kts 65°
2026-05-09 02:16 41.57746 -81.39421 43538 ft 525 kts 65°
2026-05-09 02:17 41.59008 -81.34928 43781 ft 525 kts 65°
2026-05-09 02:17 41.60297 -81.30334 44000 ft 526 kts 66°
2026-05-09 02:17 41.61577 -81.25772 44205 ft 526 kts 66°
2026-05-09 02:17 41.62849 -81.21213 44420 ft 526 kts 66°
2026-05-09 02:18 41.64126 -81.16645 44643 ft 526 kts 66°
2026-05-09 02:18 41.65383 -81.12142 44851 ft 526 kts 66°
2026-05-09 02:18 41.66662 -81.07539 44880 ft 530 kts 66°
2026-05-09 02:19 41.69236 -80.98251 44894 ft 540 kts 66°
2026-05-09 02:19 41.71868 -80.88738 44880 ft 549 kts 66°
2026-05-09 02:20 41.74508 -80.79134 44884 ft 557 kts 66°
2026-05-09 02:20 41.77187 -80.69367 44895 ft 564 kts 66°
2026-05-09 02:21 41.79900 -80.59441 44899 ft 569 kts 66°
2026-05-09 02:21 41.82590 -80.49543 44895 ft 570 kts 66°
2026-05-09 02:22 41.85288 -80.39583 44896 ft 569 kts 66°
2026-05-09 02:22 41.87977 -80.29618 44894 ft 568 kts 67°
2026-05-09 02:23 41.90647 -80.19687 44903 ft 567 kts 67°
2026-05-09 02:23 41.93300 -80.09783 44898 ft 566 kts 67°
2026-05-09 02:24 41.95939 -79.99870 44898 ft 565 kts 67°
2026-05-09 02:24 41.98560 -79.90002 44904 ft 565 kts 67°
2026-05-09 02:25 42.01193 -79.80044 44901 ft 565 kts 67°
2026-05-09 02:25 42.03803 -79.70136 44892 ft 565 kts 68°
2026-05-09 02:26 42.06397 -79.60243 44893 ft 565 kts 67°
2026-05-09 02:26 42.08989 -79.50317 44906 ft 565 kts 67°
2026-05-09 02:27 42.11583 -79.40352 44911 ft 566 kts 67°
2026-05-09 02:27 42.14172 -79.30355 44897 ft 566 kts 68°
2026-05-09 02:28 42.16743 -79.20400 44899 ft 565 kts 68°
2026-05-09 02:28 42.17821 -79.15339 44854 ft 569 kts 80°
2026-05-09 02:28 42.17872 -79.10020 44946 ft 567 kts 97°
2026-05-09 02:28 42.17012 -79.04878 44923 ft 565 kts 109°
2026-05-09 02:29 42.15792 -78.99837 44902 ft 566 kts 110°
2026-05-09 02:29 42.13284 -78.89782 44901 ft 567 kts 110°
2026-05-09 02:30 42.10780 -78.79815 44899 ft 568 kts 110°
2026-05-09 02:30 42.08247 -78.69776 44896 ft 569 kts 110°
2026-05-09 02:31 42.05696 -78.59704 44904 ft 570 kts 110°
2026-05-09 02:31 42.03125 -78.49594 44913 ft 571 kts 110°
2026-05-09 02:32 42.00552 -78.39544 44913 ft 571 kts 110°
2026-05-09 02:32 41.97973 -78.29471 44907 ft 571 kts 111°
2026-05-09 02:33 41.95379 -78.19415 44915 ft 571 kts 111°
2026-05-09 02:33 41.92777 -78.09366 44913 ft 571 kts 111°
2026-05-09 02:34 41.90164 -77.99312 44911 ft 571 kts 111°
2026-05-09 02:34 41.87527 -77.89201 44912 ft 571 kts 111°
2026-05-09 02:35 41.84915 -77.79216 44917 ft 572 kts 111°
2026-05-09 02:35 41.82293 -77.69252 44912 ft 572 kts 111°
2026-05-09 02:36 41.79640 -77.59212 44917 ft 572 kts 111°
2026-05-09 02:36 41.76968 -77.49145 44868 ft 574 kts 111°
2026-05-09 02:36 41.75627 -77.44099 44528 ft 581 kts 111°
2026-05-09 02:37 41.74255 -77.38984 43916 ft 591 kts 111°
2026-05-09 02:37 41.72882 -77.33813 43225 ft 596 kts 112°
2026-05-09 02:37 41.71496 -77.28639 42487 ft 597 kts 112°
2026-05-09 02:37 41.70084 -77.23377 41759 ft 599 kts 112°
2026-05-09 02:38 41.68686 -77.18187 41083 ft 600 kts 112°
2026-05-09 02:38 41.67260 -77.12888 40376 ft 604 kts 112°
2026-05-09 02:38 41.65840 -77.07606 39623 ft 608 kts 113°
2026-05-09 02:38 41.64412 -77.02353 38868 ft 611 kts 113°
2026-05-09 02:39 41.62971 -76.97036 38179 ft 613 kts 114°
2026-05-09 02:39 41.61509 -76.91673 37518 ft 615 kts 113°
2026-05-09 02:39 41.60044 -76.86305 36825 ft 616 kts 114°
2026-05-09 02:39 41.58588 -76.80979 36151 ft 616 kts 114°
2026-05-09 02:40 41.57119 -76.75600 35467 ft 617 kts 113°
2026-05-09 02:40 41.55656 -76.70247 34750 ft 618 kts 113°
2026-05-09 02:40 41.54180 -76.64887 34044 ft 619 kts 114°
2026-05-09 02:40 41.52700 -76.59528 33286 ft 620 kts 113°
2026-05-09 02:41 41.51187 -76.54086 32489 ft 621 kts 112°
2026-05-09 02:41 41.49717 -76.48756 31712 ft 620 kts 112°
2026-05-09 02:41 41.48230 -76.43380 30901 ft 619 kts 112°
2026-05-09 02:41 41.46760 -76.38078 30154 ft 608 kts 111°
2026-05-09 02:42 41.45300 -76.32823 29216 ft 598 kts 112°
2026-05-09 02:42 41.43879 -76.27721 28274 ft 586 kts 112°
2026-05-09 02:42 41.42489 -76.22724 27361 ft 575 kts 112°
2026-05-09 02:42 41.41098 -76.17793 26436 ft 565 kts 112°
2026-05-09 02:43 41.39753 -76.12974 25525 ft 557 kts 112°
2026-05-09 02:43 41.38387 -76.08144 24601 ft 549 kts 112°
2026-05-09 02:43 41.37078 -76.03478 23681 ft 538 kts 112°
2026-05-09 02:43 41.35785 -75.98909 22834 ft 527 kts 112°
2026-05-09 02:44 41.34516 -75.94396 22116 ft 520 kts 112°
2026-05-09 02:44 41.33248 -75.89947 21430 ft 517 kts 112°
2026-05-09 02:44 41.31995 -75.85502 20739 ft 510 kts 112°
2026-05-09 02:44 41.30739 -75.81117 20049 ft 502 kts 112°
2026-05-09 02:45 41.29527 -75.76828 19419 ft 494 kts 112°
2026-05-09 02:45 41.28309 -75.72588 18657 ft 490 kts 111°
2026-05-09 02:45 41.27130 -75.68448 17929 ft 485 kts 112°
2026-05-09 02:45 41.25751 -75.64362 17194 ft 477 kts 116°
2026-05-09 02:46 41.24435 -75.60373 16455 ft 467 kts 115°
2026-05-09 02:46 41.23150 -75.56577 15713 ft 450 kts 115°
2026-05-09 02:46 41.21908 -75.52846 14951 ft 432 kts 115°
2026-05-09 02:46 41.20723 -75.49315 14206 ft 417 kts 115°
2026-05-09 02:47 41.19556 -75.45830 13459 ft 404 kts 115°
2026-05-09 02:47 41.18440 -75.42499 12781 ft 392 kts 115°
2026-05-09 02:47 41.17355 -75.39264 12106 ft 381 kts 115°
2026-05-09 02:47 41.16293 -75.36102 11470 ft 369 kts 116°
2026-05-09 02:48 41.15278 -75.33083 11071 ft 353 kts 116°
2026-05-09 02:48 41.14303 -75.30199 10780 ft 337 kts 117°
2026-05-09 02:48 41.13355 -75.27386 10390 ft 326 kts 117°
2026-05-09 02:48 41.12441 -75.24687 9949 ft 320 kts 117°
2026-05-09 02:49 41.11550 -75.22055 9524 ft 314 kts 117°
2026-05-09 02:49 41.10661 -75.19434 9091 ft 311 kts 117°
2026-05-09 02:49 41.09782 -75.16844 8662 ft 308 kts 117°
2026-05-09 02:49 41.08911 -75.14275 8235 ft 306 kts 118°
2026-05-09 02:50 41.08039 -75.11713 7800 ft 305 kts 117°
2026-05-09 02:50 41.07169 -75.09152 7366 ft 304 kts 117°
2026-05-09 02:50 41.06311 -75.06630 6935 ft 302 kts 117°
2026-05-09 02:50 41.05458 -75.04113 6547 ft 298 kts 117°
2026-05-09 02:51 41.04612 -75.01635 6170 ft 295 kts 117°
2026-05-09 02:51 41.03768 -74.99167 6039 ft 290 kts 118°
2026-05-09 02:51 41.02937 -74.96719 6035 ft 295 kts 117°
2026-05-09 02:51 41.02093 -74.94264 6038 ft 298 kts 117°
2026-05-09 02:52 41.01231 -74.91749 6032 ft 302 kts 119°
2026-05-09 02:52 41.00241 -74.89288 6033 ft 298 kts 121°
2026-05-09 02:52 40.99264 -74.86903 6026 ft 293 kts 122°
2026-05-09 02:52 40.98305 -74.84579 6029 ft 286 kts 122°
2026-05-09 02:53 40.97363 -74.82293 5821 ft 285 kts 122°
2026-05-09 02:53 40.96392 -74.79964 5463 ft 289 kts 121°
2026-05-09 02:53 40.95425 -74.77635 5118 ft 291 kts 121°
2026-05-09 02:53 40.94459 -74.75305 4763 ft 290 kts 121°
2026-05-09 02:54 40.93498 -74.72993 4381 ft 288 kts 120°
2026-05-09 02:54 40.92540 -74.70685 4075 ft 284 kts 120°
2026-05-09 02:54 40.91614 -74.68443 4036 ft 277 kts 120°
2026-05-09 02:54 40.90674 -74.66221 4038 ft 275 kts 121°
2026-05-09 02:55 40.89730 -74.64023 4041 ft 276 kts 121°
2026-05-09 02:55 40.88784 -74.61829 4042 ft 276 kts 122°
2026-05-09 02:55 40.87835 -74.59620 4042 ft 277 kts 121°
2026-05-09 02:55 40.86884 -74.57413 4050 ft 278 kts 121°
2026-05-09 02:56 40.85928 -74.55193 3931 ft 276 kts 121°
2026-05-09 02:56 40.84991 -74.53018 3684 ft 272 kts 121°
2026-05-09 02:56 40.84051 -74.50849 3325 ft 272 kts 120°
2026-05-09 02:56 40.83119 -74.48686 3080 ft 268 kts 120°
2026-05-09 02:57 40.82211 -74.46587 3050 ft 259 kts 120°
2026-05-09 02:57 40.81337 -74.44559 3047 ft 254 kts 120°
2026-05-09 02:57 40.80475 -74.42565 3046 ft 249 kts 119°
2026-05-09 02:57 40.79613 -74.40608 3039 ft 244 kts 124°
2026-05-09 02:58 40.78557 -74.38961 3044 ft 229 kts 133°
2026-05-09 02:58 40.77501 -74.37418 2836 ft 226 kts 132°
2026-05-09 02:58 40.76493 -74.35822 2542 ft 224 kts 130°
2026-05-09 02:58 40.75527 -74.34264 2336 ft 218 kts 130°
2026-05-09 02:59 40.74577 -74.32725 2122 ft 213 kts 130°
2026-05-09 02:59 40.73646 -74.31221 2015 ft 210 kts 130°
2026-05-09 02:59 40.72720 -74.29723 2007 ft 210 kts 130°
2026-05-09 02:59 40.71849 -74.28210 1999 ft 208 kts 113°
2026-05-09 03:00 40.71783 -74.26373 2021 ft 201 kts 68°
2026-05-09 03:00 40.72521 -74.24840 2005 ft 199 kts 49°
2026-05-09 03:00 40.73425 -74.23454 1919 ft 198 kts 47°
2026-05-09 03:00 40.74348 -74.22085 1758 ft 200 kts 47°
2026-05-09 03:01 40.75284 -74.20715 1549 ft 204 kts 46°
2026-05-09 03:01 40.76236 -74.19366 1435 ft 195 kts 47°
2026-05-09 03:01 40.77125 -74.18076 1333 ft 189 kts 47°
2026-05-09 03:01 40.78000 -74.16804 1313 ft 183 kts 47°
2026-05-09 03:02 40.78843 -74.15572 1297 ft 176 kts 48°
2026-05-09 03:02 40.79639 -74.14380 1300 ft 171 kts 48°
2026-05-09 03:02 40.80429 -74.13235 1268 ft 165 kts 47°
2026-05-09 03:02 40.81193 -74.12123 1052 ft 157 kts 48°
2026-05-09 03:03 40.81897 -74.11102 833 ft 144 kts 49°
2026-05-09 03:03 40.82541 -74.10158 658 ft 135 kts 49°
2026-05-09 03:03 40.83154 -74.09264 487 ft 127 kts 49°
2026-05-09 03:03 40.83731 -74.08411 326 ft 123 kts 49°
2026-05-09 03:04 40.84296 -74.07581 166 ft 121 kts 50°
2026-05-09 03:04 40.84849 -74.06771 11 ft 111 kts 49°
2026-05-09 03:04 40.85255 -74.06175 9 ft 53 kts 49°
2026-05-09 03:04 40.85422 -74.05926 9 ft 24 kts 49°
2026-05-09 03:05 40.85515 -74.05788 9 ft 16 kts 49°
2026-05-09 03:05 40.85552 -74.05669 9 ft 12 kts 96°
2026-05-09 03:05 40.85530 -74.05597 9 ft 3 kts 151°
2026-05-09 03:05 40.85499 -74.05602 9 ft 9 kts 216°
2026-05-09 03:06 40.85442 -74.05682 9 ft 14 kts 228°
2026-05-09 03:06 40.85362 -74.05798 9 ft 18 kts 227°
2026-05-09 03:06 40.85276 -74.05926 9 ft 18 kts 228°
2026-05-09 03:06 40.85186 -74.06059 9 ft 19 kts 228°
2026-05-09 03:07 40.85090 -74.06197 9 ft 21 kts 227°
2026-05-09 03:07 40.84992 -74.06343 9 ft 20 kts 228°
2026-05-09 03:07 40.84906 -74.06470 9 ft 17 kts 229°
2026-05-09 03:07 40.84821 -74.06596 9 ft 18 kts 228°
2026-05-09 03:08 40.84726 -74.06692 9 ft 15 kts 188°
2026-05-09 03:08 40.84652 -74.06668 9 ft 4 kts 184°
2026-05-09 03:08 40.84640 -74.06676 9 ft 0 kts 228°
2026-05-09 03:08 40.84637 -74.06681 9 ft 0 kts 227°